Current Weather Conditions: station 46183

sailwx.info

Wind at 7 knots gusting 9

Wave height 0.4 meters (1 feet), 4 second period

Air temperature 5.8° C

Last reported at 2017-Feb-20 03:00 UTC.
Time now 2017-Feb-20 04:44 UTC

Location: N 53°36' W 131°06'.
View on Google Maps.

See reports from other nearby stations

  
Tides and Currents Weather Stations Pressure Air Temp Water Temp Dewpoint Dewpoint Depression Visibility Wind Speed Wind Dir Waves Ship Positions
date/time (UTC)wind fromknots sea level pressurealtimeterstation pressurevisibilityair tempwater tempwave heightnotes
2017-Feb-20 03:00 5.8 0.4
2017-Feb-20 02:00 010 7 gusting 9 5.6 0.4
2017-Feb-20 01:00 5.5 0.4
2017-Feb-20 00:00 5.4 0.4
2017-Feb-19 23:00 5.4 0.4
2017-Feb-19 22:00 360 5 gusting 7 4.9 0.4
2017-Feb-19 21:00 350 3 gusting 3 5.1 0.5
2017-Feb-19 20:00 5.3 0.5
2017-Feb-19 19:00 040 3 gusting 5 5.3 0.5
2017-Feb-19 18:00 5.0 0.5
2017-Feb-19 17:00 050 5 gusting 5 5.0 0.5
2017-Feb-19 16:00 060 5 gusting 7 4.7 0.5
2017-Feb-19 15:00 060 5 gusting 7 4.6 0.5
2017-Feb-19 14:00 050 3 gusting 5 4.7 0.5
2017-Feb-19 13:00 080 5 gusting 7 4.8 0.5
2017-Feb-19 12:00 070 5 gusting 7 4.9 0.5
2017-Feb-19 11:00 080 3 gusting 5 5.0 0.6
2017-Feb-19 10:00 070 3 gusting 5 4.9 0.6
2017-Feb-19 09:00 070 5 gusting 5 4.8 0.6
2017-Feb-19 08:00 070 5 gusting 7 5.0 0.7
2017-Feb-19 07:00 060 5 gusting 7 4.9 0.7
2017-Feb-19 06:00 040 7 gusting 9 5.1 0.7
2017-Feb-19 05:00 030 9 gusting 11 5.2 0.8
2017-Feb-19 04:00 020 9 gusting 11 5.2 0.8
2017-Feb-19 03:00 010 9 gusting 11 5.1 0.8
2017-Feb-19 02:00 010 9 gusting 11 5.0 0.8
2017-Feb-19 01:00 010 9 gusting 13 5.0 0.9
2017-Feb-19 00:00 4.8 0.9
2017-Feb-18 23:00 4.4 1.0
2017-Feb-18 22:00 360 15 gusting 19 4.3 1.0
2017-Feb-18 21:00 4.1 1.0
2017-Feb-18 20:00 4.2 1.1
2017-Feb-18 19:00 360 15 gusting 19 3.9 1.0
2017-Feb-18 18:00 360 15 gusting 19 3.9 1.1
2017-Feb-18 17:00 010 15 gusting 19 4.2 1.1
2017-Feb-18 16:00 4.0 1.0
2017-Feb-18 15:00 4.0 1.0
2017-Feb-18 14:00
2017-Feb-18 13:00 4.6 0.8
2017-Feb-18 12:00 010 15 gusting 19 4.9 0.7
2017-Feb-18 11:00 360 11 gusting 15 5.2 0.7
2017-Feb-18 10:00 350 11 gusting 15 5.2 0.6
2017-Feb-18 09:00 350 9 gusting 13 5.2 0.7
2017-Feb-18 08:00 350 9 gusting 11 5.2 0.7
2017-Feb-18 07:00 350 9 gusting 11 5.2 0.7
2017-Feb-18 06:00 340 9 gusting 11 5.2 0.8
2017-Feb-18 05:00 340 9 gusting 11 5.2 0.9
2017-Feb-18 04:00 350 11 gusting 13 5.2 0.9